owner,sensor,date,latitude,longitude,sea_surface_height_above_sea_level,qcFlag 
COMPS,ioos:station:USF.COMPS:BGC:1,2008-06-01T00:00:00Z,26.4040,-81.8810,0.831,1111122 
COMPS,ioos:station:USF.COMPS:BGC:1,2008-06-01T00:06:00Z,26.4040,-81.8810,0.831,1111122 
COMPS,ioos:station:USF.COMPS:BGC:1,2008-06-01T00:12:00Z,26.4040,-81.8810,0.831,1111122 
COMPS,ioos:station:USF.COMPS:BGC:1,2008-06-01T00:18:00Z,26.4040,-81.8810,0.831,1111122 
COMPS,ioos:station:USF.COMPS:BGC:1,2008-06-01T00:24:00Z,26.4040,-81.8810,0.831,1111122 
COMPS,ioos:station:USF.COMPS:BGC:1,2008-06-01T00:30:00Z,26.4040,-81.8810,0.831,1111122 
COMPS,ioos:station:USF.COMPS:BGC:1,2008-06-01T00:36:00Z,26.4040,-81.8810,0.831,1111122 
COMPS,ioos:station:USF.COMPS:BGC:1,2008-06-01T00:42:00Z,26.4040,-81.8810,0.83,1111122 
COMPS,ioos:station:USF.COMPS:BGC:1,2008-06-01T00:48:00Z,26.4040,-81.8810,0.831,1111122 
COMPS,ioos:station:USF.COMPS:BGC:1,2008-06-01T00:54:00Z,26.4040,-81.8810,0.831,1111122 
COMPS,ioos:station:USF.COMPS:BGC:1,2008-06-01T01:00:00Z,26.4040,-81.8810,0.831,1111122 
COMPS,ioos:station:USF.COMPS:BGC:1,2008-06-01T01:06:00Z,26.4040,-81.8810,0.831,1111122 
COMPS,ioos:station:USF.COMPS:BGC:1,2008-06-01T01:12:00Z,26.4040,-81.8810,0.831,1111122 
COMPS,ioos:station:USF.COMPS:BGC:1,2008-06-01T01:18:00Z,26.4040,-81.8810,0.831,1111122 
COMPS,ioos:station:USF.COMPS:BGC:1,2008-06-01T01:24:00Z,26.4040,-81.8810,0.831,1111122 
COMPS,ioos:station:USF.COMPS:BGC:1,2008-06-01T01:30:00Z,26.4040,-81.8810,0.831,1111122 
COMPS,ioos:station:USF.COMPS:BGC:1,2008-06-01T01:36:00Z,26.4040,-81.8810,0.831,1111122 
COMPS,ioos:station:USF.COMPS:BGC:1,2008-06-01T01:42:00Z,26.4040,-81.8810,0.831,1111122 
COMPS,ioos:station:USF.COMPS:BGC:1,2008-06-01T01:48:00Z,26.4040,-81.8810,0.831,1111122 
COMPS,ioos:station:USF.COMPS:BGC:1,2008-06-01T01:54:00Z,26.4040,-81.8810,0.831,1111122 
COMPS,ioos:station:USF.COMPS:BGC:1,2008-06-01T02:00:00Z,26.4040,-81.8810,0.831,1111122 
COMPS,ioos:station:USF.COMPS:BGC:1,2008-06-01T02:06:00Z,26.4040,-81.8810,0.831,1111122 
COMPS,ioos:station:USF.COMPS:BGC:1,2008-06-01T02:12:00Z,26.4040,-81.8810,0.831,1111122 
COMPS,ioos:station:USF.COMPS:BGC:1,2008-06-01T02:18:00Z,26.4040,-81.8810,0.831,1111122 
COMPS,ioos:station:USF.COMPS:BGC:1,2008-06-01T02:24:00Z,26.4040,-81.8810,0.831,1111122 
COMPS,ioos:station:USF.COMPS:BGC:1,2008-06-01T02:30:00Z,26.4040,-81.8810,0.831,1111122 
COMPS,ioos:station:USF.COMPS:BGC:1,2008-06-01T02:36:00Z,26.4040,-81.8810,0.831,1111122 
COMPS,ioos:station:USF.COMPS:BGC:1,2008-06-01T02:42:00Z,26.4040,-81.8810,0.83,1111122 
COMPS,ioos:station:USF.COMPS:BGC:1,2008-06-01T02:48:00Z,26.4040,-81.8810,0.83,1111122 
COMPS,ioos:station:USF.COMPS:BGC:1,2008-06-01T02:54:00Z,26.4040,-81.8810,0.83,1111122 
COMPS,ioos:station:USF.COMPS:BGC:1,2008-06-01T03:00:00Z,26.4040,-81.8810,0.831,1111122 
COMPS,ioos:station:USF.COMPS:BGC:1,2008-06-01T03:06:00Z,26.4040,-81.8810,0.83,1111122 
COMPS,ioos:station:USF.COMPS:BGC:1,2008-06-01T03:12:00Z,26.4040,-81.8810,0.83,1111122 
COMPS,ioos:station:USF.COMPS:BGC:1,2008-06-01T03:18:00Z,26.4040,-81.8810,0.831,1111122 
COMPS,ioos:station:USF.COMPS:BGC:1,2008-06-01T03:24:00Z,26.4040,-81.8810,0.831,1111122 
COMPS,ioos:station:USF.COMPS:BGC:1,2008-06-01T03:30:00Z,26.4040,-81.8810,0.83,1111122 
COMPS,ioos:station:USF.COMPS:BGC:1,2008-06-01T03:36:00Z,26.4040,-81.8810,0.83,1111122 
COMPS,ioos:station:USF.COMPS:BGC:1,2008-06-01T03:42:00Z,26.4040,-81.8810,0.83,1111122 
COMPS,ioos:station:USF.COMPS:BGC:1,2008-06-01T03:48:00Z,26.4040,-81.8810,0.831,1111122 
COMPS,ioos:station:USF.COMPS:BGC:1,2008-06-01T03:54:00Z,26.4040,-81.8810,0.83,1111122 
COMPS,ioos:station:USF.COMPS:BGC:1,2008-06-01T04:00:00Z,26.4040,-81.8810,0.83,1111122 
COMPS,ioos:station:USF.COMPS:BGC:1,2008-06-01T04:06:00Z,26.4040,-81.8810,0.831,1111122 
COMPS,ioos:station:USF.COMPS:BGC:1,2008-06-01T04:12:00Z,26.4040,-81.8810,0.831,1111122 
COMPS,ioos:station:USF.COMPS:BGC:1,2008-06-01T04:18:00Z,26.4040,-81.8810,0.831,1111122 
COMPS,ioos:station:USF.COMPS:BGC:1,2008-06-01T04:24:00Z,26.4040,-81.8810,0.831,1111122 
COMPS,ioos:station:USF.COMPS:BGC:1,2008-06-01T04:30:00Z,26.4040,-81.8810,0.831,1111122 
COMPS,ioos:station:USF.COMPS:BGC:1,2008-06-01T04:36:00Z,26.4040,-81.8810,0.831,1111122 
COMPS,ioos:station:USF.COMPS:BGC:1,2008-06-01T04:42:00Z,26.4040,-81.8810,0.831,1111122 
COMPS,ioos:station:USF.COMPS:BGC:1,2008-06-01T04:48:00Z,26.4040,-81.8810,0.831,1111122 
COMPS,ioos:station:USF.COMPS:BGC:1,2008-06-01T04:54:00Z,26.4040,-81.8810,0.831,1111122 
COMPS,ioos:station:USF.COMPS:BGC:1,2008-06-01T05:00:00Z,26.4040,-81.8810,0.831,1111122 
COMPS,ioos:station:USF.COMPS:BGC:1,2008-06-01T05:06:00Z,26.4040,-81.8810,0.831,1111122 
COMPS,ioos:station:USF.COMPS:BGC:1,2008-06-01T05:12:00Z,26.4040,-81.8810,0.831,1111122 
COMPS,ioos:station:USF.COMPS:BGC:1,2008-06-01T05:18:00Z,26.4040,-81.8810,0.831,1111122 
COMPS,ioos:station:USF.COMPS:BGC:1,2008-06-01T05:24:00Z,26.4040,-81.8810,0.831,1111122 
COMPS,ioos:station:USF.COMPS:BGC:1,2008-06-01T05:30:00Z,26.4040,-81.8810,0.831,1111122 
COMPS,ioos:station:USF.COMPS:BGC:1,2008-06-01T05:36:00Z,26.4040,-81.8810,0.831,1111122 
COMPS,ioos:station:USF.COMPS:BGC:1,2008-06-01T05:42:00Z,26.4040,-81.8810,0.831,1111122 
COMPS,ioos:station:USF.COMPS:BGC:1,2008-06-01T05:48:00Z,26.4040,-81.8810,0.831,1111122 
COMPS,ioos:station:USF.COMPS:BGC:1,2008-06-01T05:54:00Z,26.4040,-81.8810,0.831,1111122 
COMPS,ioos:station:USF.COMPS:BGC:1,2008-06-01T06:00:00Z,26.4040,-81.8810,0.831,1111122 
COMPS,ioos:station:USF.COMPS:BGC:1,2008-06-01T06:06:00Z,26.4040,-81.8810,0.831,1111122 
COMPS,ioos:station:USF.COMPS:BGC:1,2008-06-01T06:12:00Z,26.4040,-81.8810,0.831,1111122 
COMPS,ioos:station:USF.COMPS:BGC:1,2008-06-01T06:18:00Z,26.4040,-81.8810,0.831,1111122 
COMPS,ioos:station:USF.COMPS:BGC:1,2008-06-01T06:24:00Z,26.4040,-81.8810,0.831,1111122 
COMPS,ioos:station:USF.COMPS:BGC:1,2008-06-01T06:30:00Z,26.4040,-81.8810,0.831,1111122 
COMPS,ioos:station:USF.COMPS:BGC:1,2008-06-01T06:36:00Z,26.4040,-81.8810,0.831,1111122 
COMPS,ioos:station:USF.COMPS:BGC:1,2008-06-01T06:42:00Z,26.4040,-81.8810,0.831,1111122 
COMPS,ioos:station:USF.COMPS:BGC:1,2008-06-01T06:48:00Z,26.4040,-81.8810,0.831,1111122 
COMPS,ioos:station:USF.COMPS:BGC:1,2008-06-01T06:54:00Z,26.4040,-81.8810,0.831,1111122 
COMPS,ioos:station:USF.COMPS:BGC:1,2008-06-01T07:00:00Z,26.4040,-81.8810,0.831,1111122 
COMPS,ioos:station:USF.COMPS:BGC:1,2008-06-01T07:06:00Z,26.4040,-81.8810,0.831,1111122 
COMPS,ioos:station:USF.COMPS:BGC:1,2008-06-01T07:12:00Z,26.4040,-81.8810,0.831,1111122 
COMPS,ioos:station:USF.COMPS:BGC:1,2008-06-01T07:18:00Z,26.4040,-81.8810,0.831,1111122 
COMPS,ioos:station:USF.COMPS:BGC:1,2008-06-01T07:24:00Z,26.4040,-81.8810,0.831,1111122 
COMPS,ioos:station:USF.COMPS:BGC:1,2008-06-01T07:30:00Z,26.4040,-81.8810,0.831,1111122 
COMPS,ioos:station:USF.COMPS:BGC:1,2008-06-01T07:36:00Z,26.4040,-81.8810,0.831,1111122 
COMPS,ioos:station:USF.COMPS:BGC:1,2008-06-01T07:42:00Z,26.4040,-81.8810,0.831,1111122 
COMPS,ioos:station:USF.COMPS:BGC:1,2008-06-01T07:48:00Z,26.4040,-81.8810,0.831,1111122 
COMPS,ioos:station:USF.COMPS:BGC:1,2008-06-01T07:54:00Z,26.4040,-81.8810,0.831,1111122 
COMPS,ioos:station:USF.COMPS:BGC:1,2008-06-01T08:00:00Z,26.4040,-81.8810,0.831,1111122 
COMPS,ioos:station:USF.COMPS:BGC:1,2008-06-01T08:06:00Z,26.4040,-81.8810,0.831,1111122 
COMPS,ioos:station:USF.COMPS:BGC:1,2008-06-01T08:12:00Z,26.4040,-81.8810,0.831,1111122 
COMPS,ioos:station:USF.COMPS:BGC:1,2008-06-01T08:18:00Z,26.4040,-81.8810,0.831,1111122 
COMPS,ioos:station:USF.COMPS:BGC:1,2008-06-01T08:24:00Z,26.4040,-81.8810,0.831,1111122 
COMPS,ioos:station:USF.COMPS:BGC:1,2008-06-01T08:30:00Z,26.4040,-81.8810,0.831,1111122 
COMPS,ioos:station:USF.COMPS:BGC:1,2008-06-01T08:36:00Z,26.4040,-81.8810,0.831,1111122 
COMPS,ioos:station:USF.COMPS:BGC:1,2008-06-01T08:42:00Z,26.4040,-81.8810,0.831,1111122 
COMPS,ioos:station:USF.COMPS:BGC:1,2008-06-01T08:48:00Z,26.4040,-81.8810,0.831,1111122 
COMPS,ioos:station:USF.COMPS:BGC:1,2008-06-01T08:54:00Z,26.4040,-81.8810,0.831,1111122 
COMPS,ioos:station:USF.COMPS:BGC:1,2008-06-01T09:00:00Z,26.4040,-81.8810,0.831,1111122 
COMPS,ioos:station:USF.COMPS:BGC:1,2008-06-01T09:06:00Z,26.4040,-81.8810,0.831,1111122 
COMPS,ioos:station:USF.COMPS:BGC:1,2008-06-01T09:12:00Z,26.4040,-81.8810,0.831,1111122 
COMPS,ioos:station:USF.COMPS:BGC:1,2008-06-01T09:18:00Z,26.4040,-81.8810,0.831,1111122 
COMPS,ioos:station:USF.COMPS:BGC:1,2008-06-01T09:24:00Z,26.4040,-81.8810,0.831,1111122 
COMPS,ioos:station:USF.COMPS:BGC:1,2008-06-01T09:30:00Z,26.4040,-81.8810,0.831,1111122 
COMPS,ioos:station:USF.COMPS:BGC:1,2008-06-01T09:36:00Z,26.4040,-81.8810,0.831,1111122 
COMPS,ioos:station:USF.COMPS:BGC:1,2008-06-01T09:42:00Z,26.4040,-81.8810,0.831,1111122 
COMPS,ioos:station:USF.COMPS:BGC:1,2008-06-01T09:48:00Z,26.4040,-81.8810,0.831,1111122 
COMPS,ioos:station:USF.COMPS:BGC:1,2008-06-01T09:54:00Z,26.4040,-81.8810,0.831,1111122 
COMPS,ioos:station:USF.COMPS:BGC:1,2008-06-01T10:00:00Z,26.4040,-81.8810,0.831,1111122 
COMPS,ioos:station:USF.COMPS:BGC:1,2008-06-01T10:06:00Z,26.4040,-81.8810,0.831,1111122 
COMPS,ioos:station:USF.COMPS:BGC:1,2008-06-01T10:12:00Z,26.4040,-81.8810,0.831,1111122 
COMPS,ioos:station:USF.COMPS:BGC:1,2008-06-01T10:18:00Z,26.4040,-81.8810,0.831,1111122 
COMPS,ioos:station:USF.COMPS:BGC:1,2008-06-01T10:24:00Z,26.4040,-81.8810,0.831,1111122 
COMPS,ioos:station:USF.COMPS:BGC:1,2008-06-01T10:30:00Z,26.4040,-81.8810,0.831,1111122 
COMPS,ioos:station:USF.COMPS:BGC:1,2008-06-01T10:36:00Z,26.4040,-81.8810,0.831,1111122 
COMPS,ioos:station:USF.COMPS:BGC:1,2008-06-01T10:42:00Z,26.4040,-81.8810,0.831,1111122 
COMPS,ioos:station:USF.COMPS:BGC:1,2008-06-01T10:48:00Z,26.4040,-81.8810,0.831,1111122 
COMPS,ioos:station:USF.COMPS:BGC:1,2008-06-01T10:54:00Z,26.4040,-81.8810,0.831,1111122 
COMPS,ioos:station:USF.COMPS:BGC:1,2008-06-01T11:00:00Z,26.4040,-81.8810,0.831,1111122 
COMPS,ioos:station:USF.COMPS:BGC:1,2008-06-01T11:06:00Z,26.4040,-81.8810,0.831,1111122 
COMPS,ioos:station:USF.COMPS:BGC:1,2008-06-01T11:12:00Z,26.4040,-81.8810,0.831,1111122 
COMPS,ioos:station:USF.COMPS:BGC:1,2008-06-01T11:18:00Z,26.4040,-81.8810,0.831,1111122 
COMPS,ioos:station:USF.COMPS:BGC:1,2008-06-01T11:24:00Z,26.4040,-81.8810,0.831,1111122 
COMPS,ioos:station:USF.COMPS:BGC:1,2008-06-01T11:30:00Z,26.4040,-81.8810,0.831,1111122 
COMPS,ioos:station:USF.COMPS:BGC:1,2008-06-01T11:36:00Z,26.4040,-81.8810,0.831,1111122 
COMPS,ioos:station:USF.COMPS:BGC:1,2008-06-01T11:42:00Z,26.4040,-81.8810,0.831,1111122 
COMPS,ioos:station:USF.COMPS:BGC:1,2008-06-01T11:48:00Z,26.4040,-81.8810,0.831,1111122 
COMPS,ioos:station:USF.COMPS:BGC:1,2008-06-01T11:54:00Z,26.4040,-81.8810,0.831,1111122 
COMPS,ioos:station:USF.COMPS:BGC:1,2008-06-01T12:00:00Z,26.4040,-81.8810,0.831,1111122 
COMPS,ioos:station:USF.COMPS:BGC:1,2008-06-01T12:06:00Z,26.4040,-81.8810,0.831,1111122 
COMPS,ioos:station:USF.COMPS:BGC:1,2008-06-01T12:12:00Z,26.4040,-81.8810,0.831,1111122 
COMPS,ioos:station:USF.COMPS:BGC:1,2008-06-01T12:18:00Z,26.4040,-81.8810,0.831,1111122 
COMPS,ioos:station:USF.COMPS:BGC:1,2008-06-01T12:24:00Z,26.4040,-81.8810,0.83,1111122 
COMPS,ioos:station:USF.COMPS:BGC:1,2008-06-01T12:30:00Z,26.4040,-81.8810,0.83,1111122 
COMPS,ioos:station:USF.COMPS:BGC:1,2008-06-01T12:36:00Z,26.4040,-81.8810,0.83,1111122 
COMPS,ioos:station:USF.COMPS:BGC:1,2008-06-01T12:42:00Z,26.4040,-81.8810,0.83,1111122 
COMPS,ioos:station:USF.COMPS:BGC:1,2008-06-01T12:48:00Z,26.4040,-81.8810,0.83,1111122 
COMPS,ioos:station:USF.COMPS:BGC:1,2008-06-01T12:54:00Z,26.4040,-81.8810,0.83,1111122 
COMPS,ioos:station:USF.COMPS:BGC:1,2008-06-01T13:00:00Z,26.4040,-81.8810,0.829,1111122 
COMPS,ioos:station:USF.COMPS:BGC:1,2008-06-01T13:06:00Z,26.4040,-81.8810,0.829,1111122 
COMPS,ioos:station:USF.COMPS:BGC:1,2008-06-01T13:12:00Z,26.4040,-81.8810,0.829,1111122 
COMPS,ioos:station:USF.COMPS:BGC:1,2008-06-01T13:18:00Z,26.4040,-81.8810,0.829,1111122 
COMPS,ioos:station:USF.COMPS:BGC:1,2008-06-01T13:24:00Z,26.4040,-81.8810,0.829,1111122 
COMPS,ioos:station:USF.COMPS:BGC:1,2008-06-01T13:30:00Z,26.4040,-81.8810,0.828,1111122 
COMPS,ioos:station:USF.COMPS:BGC:1,2008-06-01T13:36:00Z,26.4040,-81.8810,0.828,1111122 
COMPS,ioos:station:USF.COMPS:BGC:1,2008-06-01T13:42:00Z,26.4040,-81.8810,0.828,1111122 
COMPS,ioos:station:USF.COMPS:BGC:1,2008-06-01T13:48:00Z,26.4040,-81.8810,0.827,1111122 
COMPS,ioos:station:USF.COMPS:BGC:1,2008-06-01T13:54:00Z,26.4040,-81.8810,0.668,1111122 
COMPS,ioos:station:USF.COMPS:BGC:1,2008-06-01T14:00:00Z,26.4040,-81.8810,0.455,1111122 
COMPS,ioos:station:USF.COMPS:BGC:1,2008-06-01T14:06:00Z,26.4040,-81.8810,0.354,1111122 
COMPS,ioos:station:USF.COMPS:BGC:1,2008-06-01T14:12:00Z,26.4040,-81.8810,0.316,1111122 
COMPS,ioos:station:USF.COMPS:BGC:1,2008-06-01T14:18:00Z,26.4040,-81.8810,0.271,1111122 
COMPS,ioos:station:USF.COMPS:BGC:1,2008-06-01T14:24:00Z,26.4040,-81.8810,0.279,1111122 
COMPS,ioos:station:USF.COMPS:BGC:1,2008-06-01T14:30:00Z,26.4040,-81.8810,0.279,1111122 
COMPS,ioos:station:USF.COMPS:BGC:1,2008-06-01T14:36:00Z,26.4040,-81.8810,0.281,1111122 
COMPS,ioos:station:USF.COMPS:BGC:1,2008-06-01T14:42:00Z,26.4040,-81.8810,0.292,1111122 
COMPS,ioos:station:USF.COMPS:BGC:1,2008-06-01T14:48:00Z,26.4040,-81.8810,0.293,1111122 
COMPS,ioos:station:USF.COMPS:BGC:1,2008-06-01T14:54:00Z,26.4040,-81.8810,0.291,1111122 
COMPS,ioos:station:USF.COMPS:BGC:1,2008-06-01T15:00:00Z,26.4040,-81.8810,0.296,1111122 
COMPS,ioos:station:USF.COMPS:BGC:1,2008-06-01T15:06:00Z,26.4040,-81.8810,0.3,1111122 
COMPS,ioos:station:USF.COMPS:BGC:1,2008-06-01T15:12:00Z,26.4040,-81.8810,0.3,1111122 
COMPS,ioos:station:USF.COMPS:BGC:1,2008-06-01T15:18:00Z,26.4040,-81.8810,0.3,1111122 
COMPS,ioos:station:USF.COMPS:BGC:1,2008-06-01T15:24:00Z,26.4040,-81.8810,0.307,1111122 
COMPS,ioos:station:USF.COMPS:BGC:1,2008-06-01T15:30:00Z,26.4040,-81.8810,0.31,1111122 
COMPS,ioos:station:USF.COMPS:BGC:1,2008-06-01T15:36:00Z,26.4040,-81.8810,0.296,1111122 
COMPS,ioos:station:USF.COMPS:BGC:1,2008-06-01T15:42:00Z,26.4040,-81.8810,0.301,1111122 
COMPS,ioos:station:USF.COMPS:BGC:1,2008-06-01T15:48:00Z,26.4040,-81.8810,0.298,1111122 
COMPS,ioos:station:USF.COMPS:BGC:1,2008-06-01T15:54:00Z,26.4040,-81.8810,0.288,1111122 
COMPS,ioos:station:USF.COMPS:BGC:1,2008-06-01T16:00:00Z,26.4040,-81.8810,0.278,1111122 
COMPS,ioos:station:USF.COMPS:BGC:1,2008-06-01T16:06:00Z,26.4040,-81.8810,0.265,1111122 
COMPS,ioos:station:USF.COMPS:BGC:1,2008-06-01T16:12:00Z,26.4040,-81.8810,0.253,1111122 
COMPS,ioos:station:USF.COMPS:BGC:1,2008-06-01T16:18:00Z,26.4040,-81.8810,0.239,1111122 
COMPS,ioos:station:USF.COMPS:BGC:1,2008-06-01T16:24:00Z,26.4040,-81.8810,0.219,1111122 
COMPS,ioos:station:USF.COMPS:BGC:1,2008-06-01T16:30:00Z,26.4040,-81.8810,0.199,1111122 
COMPS,ioos:station:USF.COMPS:BGC:1,2008-06-01T16:36:00Z,26.4040,-81.8810,0.193,1111122 
COMPS,ioos:station:USF.COMPS:BGC:1,2008-06-01T16:42:00Z,26.4040,-81.8810,0.178,1111122 
COMPS,ioos:station:USF.COMPS:BGC:1,2008-06-01T16:48:00Z,26.4040,-81.8810,0.152,1111122 
COMPS,ioos:station:USF.COMPS:BGC:1,2008-06-01T16:54:00Z,26.4040,-81.8810,0.145,1111122 
COMPS,ioos:station:USF.COMPS:BGC:1,2008-06-01T17:00:00Z,26.4040,-81.8810,0.127,1111122 
COMPS,ioos:station:USF.COMPS:BGC:1,2008-06-01T17:06:00Z,26.4040,-81.8810,0.106,1111122 
COMPS,ioos:station:USF.COMPS:BGC:1,2008-06-01T17:12:00Z,26.4040,-81.8810,0.084,1111122 
COMPS,ioos:station:USF.COMPS:BGC:1,2008-06-01T17:18:00Z,26.4040,-81.8810,0.067,1111122 
COMPS,ioos:station:USF.COMPS:BGC:1,2008-06-01T17:24:00Z,26.4040,-81.8810,0.059,1111122 
COMPS,ioos:station:USF.COMPS:BGC:1,2008-06-01T17:30:00Z,26.4040,-81.8810,0.044,1111122 
COMPS,ioos:station:USF.COMPS:BGC:1,2008-06-01T17:36:00Z,26.4040,-81.8810,0.023,1111122 
COMPS,ioos:station:USF.COMPS:BGC:1,2008-06-01T17:42:00Z,26.4040,-81.8810,0.006,1111122 
COMPS,ioos:station:USF.COMPS:BGC:1,2008-06-01T17:48:00Z,26.4040,-81.8810,-0.009,1111122 
COMPS,ioos:station:USF.COMPS:BGC:1,2008-06-01T17:54:00Z,26.4040,-81.8810,-0.03,1111122 
COMPS,ioos:station:USF.COMPS:BGC:1,2008-06-01T18:00:00Z,26.4040,-81.8810,-0.053,1111122 
COMPS,ioos:station:USF.COMPS:BGC:1,2008-06-01T18:06:00Z,26.4040,-81.8810,-0.06,1111122 
COMPS,ioos:station:USF.COMPS:BGC:1,2008-06-01T18:12:00Z,26.4040,-81.8810,-0.077,1111122 
COMPS,ioos:station:USF.COMPS:BGC:1,2008-06-01T18:18:00Z,26.4040,-81.8810,-0.096,1111122 
COMPS,ioos:station:USF.COMPS:BGC:1,2008-06-01T18:24:00Z,26.4040,-81.8810,-0.113,1111122 
COMPS,ioos:station:USF.COMPS:BGC:1,2008-06-01T18:30:00Z,26.4040,-81.8810,-0.125,1111122 
COMPS,ioos:station:USF.COMPS:BGC:1,2008-06-01T18:36:00Z,26.4040,-81.8810,-0.145,1111122 
COMPS,ioos:station:USF.COMPS:BGC:1,2008-06-01T18:42:00Z,26.4040,-81.8810,-0.169,1111122 
COMPS,ioos:station:USF.COMPS:BGC:1,2008-06-01T18:48:00Z,26.4040,-81.8810,-0.18,1111122 
COMPS,ioos:station:USF.COMPS:BGC:1,2008-06-01T18:54:00Z,26.4040,-81.8810,-0.201,1111122 
COMPS,ioos:station:USF.COMPS:BGC:1,2008-06-01T19:00:00Z,26.4040,-81.8810,-0.217,1111122 
COMPS,ioos:station:USF.COMPS:BGC:1,2008-06-01T19:06:00Z,26.4040,-81.8810,-0.236,1111122 
COMPS,ioos:station:USF.COMPS:BGC:1,2008-06-01T19:12:00Z,26.4040,-81.8810,-0.255,1111122 
COMPS,ioos:station:USF.COMPS:BGC:1,2008-06-01T19:18:00Z,26.4040,-81.8810,-0.271,1111122 
COMPS,ioos:station:USF.COMPS:BGC:1,2008-06-01T19:24:00Z,26.4040,-81.8810,-0.288,1111122 
COMPS,ioos:station:USF.COMPS:BGC:1,2008-06-01T19:30:00Z,26.4040,-81.8810,-0.306,1111122 
COMPS,ioos:station:USF.COMPS:BGC:1,2008-06-01T19:36:00Z,26.4040,-81.8810,-0.329,1111122 
COMPS,ioos:station:USF.COMPS:BGC:1,2008-06-01T19:42:00Z,26.4040,-81.8810,-0.342,1111122 
COMPS,ioos:station:USF.COMPS:BGC:1,2008-06-01T19:48:00Z,26.4040,-81.8810,-0.357,1111122 
COMPS,ioos:station:USF.COMPS:BGC:1,2008-06-01T19:54:00Z,26.4040,-81.8810,-0.372,1111122 
COMPS,ioos:station:USF.COMPS:BGC:1,2008-06-01T20:00:00Z,26.4040,-81.8810,-0.391,1111122 
COMPS,ioos:station:USF.COMPS:BGC:1,2008-06-01T20:06:00Z,26.4040,-81.8810,-0.413,1111122 
COMPS,ioos:station:USF.COMPS:BGC:1,2008-06-01T20:12:00Z,26.4040,-81.8810,-0.429,1111122 
COMPS,ioos:station:USF.COMPS:BGC:1,2008-06-01T20:18:00Z,26.4040,-81.8810,-0.437,1111122 
COMPS,ioos:station:USF.COMPS:BGC:1,2008-06-01T20:24:00Z,26.4040,-81.8810,-0.456,1111122 
COMPS,ioos:station:USF.COMPS:BGC:1,2008-06-01T20:30:00Z,26.4040,-81.8810,-0.47,1111122 
COMPS,ioos:station:USF.COMPS:BGC:1,2008-06-01T20:36:00Z,26.4040,-81.8810,-0.485,1111122 
COMPS,ioos:station:USF.COMPS:BGC:1,2008-06-01T20:42:00Z,26.4040,-81.8810,-0.501,1111122 
COMPS,ioos:station:USF.COMPS:BGC:1,2008-06-01T20:48:00Z,26.4040,-81.8810,-0.518,1111122 
COMPS,ioos:station:USF.COMPS:BGC:1,2008-06-01T20:54:00Z,26.4040,-81.8810,-0.531,1111122 
COMPS,ioos:station:USF.COMPS:BGC:1,2008-06-01T21:00:00Z,26.4040,-81.8810,-0.543,1111122 
COMPS,ioos:station:USF.COMPS:BGC:1,2008-06-01T21:06:00Z,26.4040,-81.8810,-0.554,1111122 
COMPS,ioos:station:USF.COMPS:BGC:1,2008-06-01T21:12:00Z,26.4040,-81.8810,-0.564,1111122 
COMPS,ioos:station:USF.COMPS:BGC:1,2008-06-01T21:18:00Z,26.4040,-81.8810,-0.577,1111122 
COMPS,ioos:station:USF.COMPS:BGC:1,2008-06-01T21:24:00Z,26.4040,-81.8810,-0.587,1111122 
COMPS,ioos:station:USF.COMPS:BGC:1,2008-06-01T21:30:00Z,26.4040,-81.8810,-0.595,1111122 
COMPS,ioos:station:USF.COMPS:BGC:1,2008-06-01T21:36:00Z,26.4040,-81.8810,-0.606,1111122 
COMPS,ioos:station:USF.COMPS:BGC:1,2008-06-01T21:42:00Z,26.4040,-81.8810,-0.617,1111122 
COMPS,ioos:station:USF.COMPS:BGC:1,2008-06-01T21:48:00Z,26.4040,-81.8810,-0.628,1111122 
COMPS,ioos:station:USF.COMPS:BGC:1,2008-06-01T21:54:00Z,26.4040,-81.8810,-0.636,1111122 
COMPS,ioos:station:USF.COMPS:BGC:1,2008-06-01T22:00:00Z,26.4040,-81.8810,-0.644,1111122 
COMPS,ioos:station:USF.COMPS:BGC:1,2008-06-01T22:06:00Z,26.4040,-81.8810,-0.651,1111122 
COMPS,ioos:station:USF.COMPS:BGC:1,2008-06-01T22:12:00Z,26.4040,-81.8810,-0.648,1111122 
COMPS,ioos:station:USF.COMPS:BGC:1,2008-06-01T22:18:00Z,26.4040,-81.8810,-0.652,1111122 
COMPS,ioos:station:USF.COMPS:BGC:1,2008-06-01T22:24:00Z,26.4040,-81.8810,-0.657,1111122 
COMPS,ioos:station:USF.COMPS:BGC:1,2008-06-01T22:30:00Z,26.4040,-81.8810,-0.658,1111122 
COMPS,ioos:station:USF.COMPS:BGC:1,2008-06-01T22:36:00Z,26.4040,-81.8810,-0.65,1111122 
COMPS,ioos:station:USF.COMPS:BGC:1,2008-06-01T22:42:00Z,26.4040,-81.8810,-0.645,1111122 
COMPS,ioos:station:USF.COMPS:BGC:1,2008-06-01T22:48:00Z,26.4040,-81.8810,-0.641,1111122 
COMPS,ioos:station:USF.COMPS:BGC:1,2008-06-01T22:54:00Z,26.4040,-81.8810,-0.636,1111122 
COMPS,ioos:station:USF.COMPS:BGC:1,2008-06-01T23:00:00Z,26.4040,-81.8810,-0.626,1111122 
COMPS,ioos:station:USF.COMPS:BGC:1,2008-06-01T23:06:00Z,26.4040,-81.8810,-0.61,1111122 
COMPS,ioos:station:USF.COMPS:BGC:1,2008-06-01T23:12:00Z,26.4040,-81.8810,-0.591,1111122 
COMPS,ioos:station:USF.COMPS:BGC:1,2008-06-01T23:18:00Z,26.4040,-81.8810,-0.58,1111122 
COMPS,ioos:station:USF.COMPS:BGC:1,2008-06-01T23:24:00Z,26.4040,-81.8810,-0.564,1111122 
COMPS,ioos:station:USF.COMPS:BGC:1,2008-06-01T23:30:00Z,26.4040,-81.8810,-0.559,1111122 
COMPS,ioos:station:USF.COMPS:BGC:1,2008-06-01T23:36:00Z,26.4040,-81.8810,-0.541,1111122 
COMPS,ioos:station:USF.COMPS:BGC:1,2008-06-01T23:42:00Z,26.4040,-81.8810,-0.525,1111122 
COMPS,ioos:station:USF.COMPS:BGC:1,2008-06-01T23:48:00Z,26.4040,-81.8810,-0.518,1111122 
COMPS,ioos:station:USF.COMPS:BGC:1,2008-06-01T23:54:00Z,26.4040,-81.8810,-0.514,1111122 
COMPS,ioos:station:USF.COMPS:BGC:1,2008-06-02T00:00:00Z,26.4040,-81.8810,-0.494,1111122 
COMPS,ioos:station:USF.COMPS:BGC:1,2008-06-02T00:06:00Z,26.4040,-81.8810,-0.484,1111122 
COMPS,ioos:station:USF.COMPS:BGC:1,2008-06-02T00:12:00Z,26.4040,-81.8810,-0.472,1111122 
COMPS,ioos:station:USF.COMPS:BGC:1,2008-06-02T00:18:00Z,26.4040,-81.8810,-0.454,1111122 
COMPS,ioos:station:USF.COMPS:BGC:1,2008-06-02T00:24:00Z,26.4040,-81.8810,-0.431,1111122 
COMPS,ioos:station:USF.COMPS:BGC:1,2008-06-02T00:30:00Z,26.4040,-81.8810,-0.421,1111122 
COMPS,ioos:station:USF.COMPS:BGC:1,2008-06-02T00:36:00Z,26.4040,-81.8810,-0.406,1111122 
COMPS,ioos:station:USF.COMPS:BGC:1,2008-06-02T00:42:00Z,26.4040,-81.8810,-0.226,1111122 
COMPS,ioos:station:USF.COMPS:BGC:1,2008-06-02T00:48:00Z,26.4040,-81.8810,-0.084,1111122 
COMPS,ioos:station:USF.COMPS:BGC:1,2008-06-02T00:54:00Z,26.4040,-81.8810,0.168,1111122 
COMPS,ioos:station:USF.COMPS:BGC:1,2008-06-02T01:00:00Z,26.4040,-81.8810,0.245,1111122 
COMPS,ioos:station:USF.COMPS:BGC:1,2008-06-02T01:06:00Z,26.4040,-81.8810,0.482,1111122 
COMPS,ioos:station:USF.COMPS:BGC:1,2008-06-02T01:12:00Z,26.4040,-81.8810,0.581,1111122 
COMPS,ioos:station:USF.COMPS:BGC:1,2008-06-02T01:18:00Z,26.4040,-81.8810,0.827,1111122 
COMPS,ioos:station:USF.COMPS:BGC:1,2008-06-02T01:24:00Z,26.4040,-81.8810,0.827,1111122 
COMPS,ioos:station:USF.COMPS:BGC:1,2008-06-02T01:30:00Z,26.4040,-81.8810,0.828,1111122 
COMPS,ioos:station:USF.COMPS:BGC:1,2008-06-02T01:36:00Z,26.4040,-81.8810,0.828,1111122 
COMPS,ioos:station:USF.COMPS:BGC:1,2008-06-02T01:42:00Z,26.4040,-81.8810,0.828,1111122 
COMPS,ioos:station:USF.COMPS:BGC:1,2008-06-02T01:48:00Z,26.4040,-81.8810,0.828,1111122 
COMPS,ioos:station:USF.COMPS:BGC:1,2008-06-02T01:54:00Z,26.4040,-81.8810,0.828,1111122 
COMPS,ioos:station:USF.COMPS:BGC:1,2008-06-02T02:00:00Z,26.4040,-81.8810,0.828,1111122 
COMPS,ioos:station:USF.COMPS:BGC:1,2008-06-02T02:06:00Z,26.4040,-81.8810,0.828,1111122 
COMPS,ioos:station:USF.COMPS:BGC:1,2008-06-02T02:12:00Z,26.4040,-81.8810,0.829,1111122 
COMPS,ioos:station:USF.COMPS:BGC:1,2008-06-02T02:18:00Z,26.4040,-81.8810,0.829,1111122 
COMPS,ioos:station:USF.COMPS:BGC:1,2008-06-02T02:24:00Z,26.4040,-81.8810,0.829,1111122 
COMPS,ioos:station:USF.COMPS:BGC:1,2008-06-02T02:30:00Z,26.4040,-81.8810,0.829,1111122 
COMPS,ioos:station:USF.COMPS:BGC:1,2008-06-02T02:36:00Z,26.4040,-81.8810,0.829,1111122 
COMPS,ioos:station:USF.COMPS:BGC:1,2008-06-02T02:42:00Z,26.4040,-81.8810,0.829,1111122 
COMPS,ioos:station:USF.COMPS:BGC:1,2008-06-02T02:48:00Z,26.4040,-81.8810,0.829,1111122 
COMPS,ioos:station:USF.COMPS:BGC:1,2008-06-02T02:54:00Z,26.4040,-81.8810,0.829,1111122 
COMPS,ioos:station:USF.COMPS:BGC:1,2008-06-02T03:00:00Z,26.4040,-81.8810,0.829,1111122 